Regional Weather Roundup
Issued by NWS Newport/Morehead, NC

Current Version | Previous Version | Text Only | Print | Product List | Glossary On
Versions: 1 2 3 4 5 6 7 8 9 10 11 12 13 14 15 16 17 18 19 20 21 22 23 24 25 26 27 28 29 30 31 32 33 34 35 36 37 38 39 40 41 42 43 44 45 46 47 48 49 50
000
ASUS42 KMHX 292125
RWRMHX
WEATHER ROUNDUP FOR EASTERN NORTH CAROLINA
NATIONAL WEATHER SERVICE NEWPORT/MOREHEAD CITY NC
500 PM EDT FRI MAY 29 2015

NOTE: "FAIR" INDICATES FEW OR NO CLOUDS BELOW 12,000 FEET
WITH NO SIGNIFICANT WEATHER AND/OR OBSTRUCTIONS TO VISIBILITY

NCZ015>017-031-032-045>047-102-103-292200-
NORTH COAST

CITY           SKY/WX    TMP DP  RH WIND       PRES   REMARKS
EDENTON          N/A     82  69  65 E10       30.21F
ELIZABETH CITY MOSUNNY   80  65  59 SE13      30.23S
KITTY HAWK     CLEAR     77  68  72 E9        30.22F
MANTEO         SUNNY     77  68  74 E10G16    30.23F

$$

NCZ045>047-081-094-103-104-292200-
CENTRAL COAST

CITY           SKY/WX    TMP DP  RH WIND       PRES   REMARKS
FRISCO         SUNNY     82  67  60 SE7       30.23F
SWANQUARTER      N/A     81 N/A N/A S9G16     30.18S

$$

NCZ095-097-098-100-101-292200-
SOUTHERN COAST

CITY           SKY/WX    TMP DP  RH WIND       PRES   REMARKS
BEAUFORT       CLOUDY    79  68  69 SE12      30.21F
CEDAR ISLAND     N/A     79 N/A N/A SE7       30.27S
JACKSONVILLE   SUNNY     81  65  58 SE15      30.20F
PINEY ISLAND   MOCLDY   N/A N/A N/A SE13      30.22F
WILMINGTON     MOSUNNY   81  66  60 E10G20    30.20F


$$

NCZ011>013-027>030-043-044-078>080-089-090>093-098-292200-
COASTAL PLAIN

CITY           SKY/WX    TMP DP  RH WIND       PRES   REMARKS
AHOSKIE        SUNNY     84  60  43 SE6       30.19F
CLINTON        SUNNY     85  65  51 SE6       30.18F
ELIZABETHTOWN  MOSUNNY   86  63  45 SE7       30.17F
GOLDSBORO      MOSUNNY   88  60  39 CALM      30.15F
GREENVILLE     SUNNY     84  64  51 SE7       30.20F
HAVELOCK       MOSUNNY   79  67  66 SE9       30.21F
KENANSVILLE    PTSUNNY   85  60  43 SE5       30.18F
KINSTON        MOSUNNY   86  61  42 E3        30.19F
NEW BERN       SUNNY     84  66  54 SE12      30.21F
RICHLANDS      MOSUNNY   84  63  48 SE10      30.19F
ROCKY MOUNT    SUNNY     88  58  36 S8        30.19F
WASHINGTON     SUNNY     83  62  49 SE9       30.20F
WHITEVILLE     PTSUNNY   85  65  51 SE7       30.17F

$$

AMZ130-135-150-152-154-156-158-170-250-252-270-ANZ085-086-088-633-658-670-292200-
MARINE OBSERVATIONS

STATION/POSITION TIME  TEMP    WIND        PRES    WAVE   SWELL
                       AIR SEA DIR/SP/G            HT/PER HT/PER
                 (UTC) (F)     (DEG/KT/KT) (MB)    (FT/S) (FT/S)
CHESAPEAKE LIGHT 2100   70     130/ 16/ 16 1024.4
64 E VA BEACH    2050   71 70   80/  6/  6 1024.0    3/ 8   3/ 8
DUCK             2000                      1023.2
2 E DUCK         2011      68                N/A     2/ 9
OREGON INLET     2000                      1024.1
13E OREGON INLT  2100      76                N/A     3/ 8
HATTERAS CG      2000                      1023.5
DIAMOND BUOY     2050   77 81  110/  6/  8 1023.6    3/ 8   3/ 8
CAPE LOOKOUT     2100   76     100/  6/  6 1023.0
BEAUFORT LAB     2000                      1022.7
27 SE WRIGHTSVLE 2100      76   10/  4/  6   N/A
5 SE WRIGHTSVLE  2008   76 78  120/ 12/ 17 1023.1
225 S CAPE HAT   2050   75 75   90/ 14/ 17 1021.4    6/ 8   3/ 8
41 SE CHARLESTON 2050   78 79   80/ 10/ 12 1021.3    4/ 9   3/ 9

$$



USA.gov is the U.S. government's official web portal to all federal, state and local government web resources and services.